北斗三号 M18 (BEIDOU 3M18)

导读

BEIDOU-3 M18 是中国北斗三号全球卫星导航系统中的重要组成部分,属于中圆地球轨道(MEO)卫星。该卫星于2020年前后发射,主要用于提供高精度定位、导航和授时服务。北斗三号系统由多颗地球静止轨道(GEO)、倾斜地球同步轨道(IGSO)和中圆轨道(MEO)卫星组成,M18 在其中承担关键的全球覆盖与信号传输任务,增强了系统的稳定性和服务范围,支持全球用户实现全天候、全天时的导航服务。

基本信息
目录编号:
43707
目录名称:
BEIDOU 3M18
国际标识:
2018-093B
轨道中心:
EARTH
卫星名称:
北斗三号 M18
卫星全名:
北斗三号 M18 (BEIDOU 3M18)
卫星状态:
在轨 (已飞行2856 天)
发射日期:
2018-11-18 UTC
国别 :
中国 (CN)
星等 :
--
该卫星已列入 空间交会检测服务 Space Conjunction Data Service (SCDS) ,当前飞行风险评估等级: 无高风险
轨道信息
数据来源 国际轨道数据 AOE轨道数据
星历时间 2026-09-12T11:52:47+0800
1天前
查看轨道信息
2026-09-11T04:00:00+0800
2天前
查看轨道信息
半长轴 27906.629km 27906.679km
偏心率 0.0007477 0.0007527
轨道倾角 54.167° 54.167°
近地点辐角 338.230° 336.347°
升交点赤经 179.339° 179.385°
平近点角 21.741° 213.066°
近地点 21507.626km 21507.536km
远地点 21549.358km 21549.548km
周期 773.252分钟 773.254分钟
每日圈数 1.862266 1.862261
详细信息
平衡模式:
三轴稳定
制造商(研发单位):
中国空间技术研究院
制造商所在国:
中国
使用方式:
暂无
工作目标:
为全球用户提供连续、稳定、可靠的北斗导航、定位服务
预期寿命:
12年
卫星简介
北斗卫星导航系统是中国着眼于国家安全和经济社会发展需要,自主建设运行的全球卫星导航系统,是为全球用户提供全天候、全天时、高精度的定位、导航和授时服务的国家重要时空基础设施。该卫星仍在工作。
2D轨道图
3D轨道图
轨道高度分析图
轨道倾角分析图
轨道综合分析图
查看轨道综合分析图
与全量物体交会距离演化趋势
与全量物体交会风险概率演化趋势